DW7737 Weather Reports


Display with metric or nautical units.
time (UTC)temp
F
wind
direction
speed
MPH
gust
MPH
rain 1hr
in
rain 24hr
in
rain mn
in
humidity
%
barometer
mb
20200712151505 83 331 2.0 7.0 0.00 0.00 0.00 33 1011.3
20200712150605 81 307 2.0 8.0 0.00 0.00 0.00 32 1011.5
20200712145705 80 336 3.0 11.0 0.00 0.00 0.00 33 1011.2
20200712144805 80 269 4.0 11.0 0.00 0.00 0.00 33 1011.0
20200712143905 80 298 3.0 7.0 0.00 0.00 0.00 34 1011.3
20200712143005 79 289 1.0 10.0 0.00 0.00 0.00 38 1011.3
20200712142105 79 291 6.0 10.0 0.00 0.00 0.00 37 1011.3
20200712141205 79 307 1.0 5.0 0.00 0.00 0.00 38 1011.3
20200712140304 78 313 2.0 7.0 0.00 0.00 0.00 42 1011.6
20200712135405 78 312 2.0 5.0 0.00 0.00 0.00 43 1011.5
20200712134509 76 315 2.0 7.0 0.00 0.00 0.00 45 1011.5
20200712133604 77 332 2.0 6.0 0.00 0.00 0.00 46 1011.3
20200712132705 76 320 3.0 6.0 0.00 0.00 0.00 47 1011.3
20200712131804 76 311 4.0 7.0 0.00 0.00 0.00 47 1011.2
20200712130905 75 302 3.0 6.0 0.00 0.00 0.00 47 1011.3
20200712130004 75 307 2.0 7.0 0.00 0.00 0.00 50 1011.1
20200712125104 74 292 1.0 7.0 0.00 0.00 0.00 52 1011.3
20200712124204 74 317 1.0 5.0 0.00 0.00 0.00 53 1011.1
20200712123305 74 307 2.0 5.0 0.00 0.00 0.00 53 1011.1
20200712122406 74 306 1.0 4.0 0.00 0.00 0.00 55 1011.1
20200712121505 73 293 1.0 5.0 0.00 0.00 0.00 54 1010.8
20200712120604 73 289 3.0 5.0 0.00 0.00 0.00 55 1010.9
20200712115704 73 279 3.0 6.0 0.00 0.00 0.00 55 1010.5
20200712114804 73 272 2.0 6.0 0.00 0.00 0.00 54 1010.5
20200712113904 73 307 2.0 5.0 0.00 0.00 0.00 55 1010.5
20200712113028 73 300 1.0 5.0 0.00 0.00 0.00 56 1010.5
20200712112104 73 287 2.0 9.0 0.00 0.00 0.00 56 1010.5
20200712111204 74 307 1.0 6.0 0.00 0.00 0.00 56 1010.2
20200712110305 74 318 1.0 7.0 0.00 0.00 0.00 57 1010.4
20200712105404 74 302 3.0 6.0 0.00 0.00 0.00 57 1010.3
20200712104505 74 297 1.0 5.0 0.00 0.00 0.00 57 1010.5
20200712103606 75 312 2.0 7.0 0.00 0.00 0.00 57 1010.2
20200712102705 75 289 3.0 5.0 0.00 0.00 0.00 58 1010.2
20200712101804 75 287 1.0 4.0 0.00 0.00 0.00 59 1010.3
20200712100905 75 272 2.0 5.0 0.00 0.00 0.00 58 1010.2
20200712100014 75 324 3.0 5.0 0.00 0.00 0.00 57 1010.0
20200712095105 75 309 2.0 5.0 0.00 0.00 0.00 59 1009.8
20200712094205 76 317 2.0 5.0 0.00 0.00 0.00 58 1009.8
20200712093305 76 309 4.0 5.0 0.00 0.00 0.00 60 1009.8
20200712092404 76 285 1.0 5.0 0.00 0.00 0.00 63 1009.7
20200712090604 76 307 1.0 4.0 0.00 0.00 0.00 66 1009.7
20200712085704 76 314 1.0 3.0 0.00 0.00 0.00 66 1009.8
20200712084805 76 304 1.0 3.0 0.00 0.00 0.00 66 1009.6
20200712083904 76 310 1.0 3.0 0.00 0.00 0.00 66 1009.7
20200712083012 76 300 1.0 3.0 0.00 0.00 0.00 66 1009.8
20200712082104 77 297 1.0 3.0 0.00 0.00 0.00 66 1009.7
20200712081204 77 299 1.0 3.0 0.00 0.00 0.00 66 1010.0
20200712080304 77 301 1.0 3.0 0.00 0.00 0.00 66 1009.8
20200712075404 77 323 1.0 3.0 0.00 0.00 0.00 66 1009.7
20200712074504 77 274 1.0 2.0 0.00 0.00 0.00 63 1009.8
20200712073604 77 0 0.0 3.0 0.00 0.00 0.00 61 1009.9
20200712072707 77 286 1.0 1.0 0.00 0.00 0.00 58 1010.0
20200712071805 78 0 0.0 0.0 0.00 0.00 0.00 56 1010.0
20200712070904 78 0 0.0 0.0 0.00 0.00 0.00 55 1009.9
20200712070004 78 0 0.0 0.0 0.00 0.00 0.00 54 1010.0
20200712065105 79 0 0.0 1.0 0.00 0.00 0.00 53 1010.0
20200712064204 80 313 1.0 2.0 0.00 0.00 0.00 50 1010.2
20200712063304 80 0 0.0 3.0 0.00 0.00 0.00 48 1010.5
20200712062404 80 302 1.0 2.0 0.00 0.00 0.00 49 1010.2
20200712061513 79 288 1.0 2.0 0.00 0.00 0.00 53 1010.4
20200712060604 78 0 0.0 1.0 0.00 0.00 0.00 57 1010.3
20200712055704 78 0 0.0 1.0 0.00 0.00 0.00 56 1010.2
20200712054805 78 0 0.0 0.0 0.00 0.00 0.00 56 1010.6
20200712053905 78 0 0.0 0.0 0.00 0.00 0.00 57 1010.4
20200712053005 78 0 0.0 0.0 0.00 0.00 0.00 58 1010.3
20200712052104 78 0 0.0 0.0 0.00 0.00 0.00 58 1010.0
20200712051204 78 0 0.0 0.0 0.00 0.00 0.00 59 1009.9
20200712050304 78 0 0.0 0.0 0.00 0.00 0.00 61 1009.9
20200712045404 78 0 0.0 0.0 0.00 0.00 0.00 62 1009.7
20200712044504 78 0 0.0 0.0 0.00 0.00 0.00 63 1009.3
20200712043604 78 0 0.0 1.0 0.00 0.00 0.00 63 1009.1
20200712042705 78 0 0.0 0.0 0.00 0.00 0.00 62 1009.3
20200712041804 78 0 0.0 0.0 0.00 0.00 0.00 60 1009.4
20200712040905 78 0 0.0 0.0 0.00 0.00 0.00 60 1009.2
20200712040004 78 0 0.0 0.0 0.00 0.00 0.00 58 1009.3
20200712035105 79 0 0.0 0.0 0.00 0.00 0.00 58 1009.2
20200712034205 79 0 0.0 0.0 0.00 0.00 0.00 55 1009.2
20200712033305 79 0 0.0 0.0 0.00 0.00 0.00 53 1009.6
20200712032404 80 0 0.0 0.0 0.00 0.00 0.00 51 1009.7
20200712031504 81 0 0.0 0.0 0.00 0.00 0.00 50 1010.2
20200712030604 81 0 0.0 0.0 0.00 0.00 0.00 50 1010.5
20200712025704 81 0 0.0 0.0 0.00 0.00 0.00 49 1010.4
20200712024807 82 0 0.0 1.0 0.00 0.00 0.00 48 1010.7
20200712023905 83 0 0.0 1.0 0.00 0.00 0.00 48 1010.8
20200712023005 83 0 0.0 1.0 0.00 0.00 0.00 49 1010.6
20200712022107 83 0 0.0 0.0 0.00 0.00 0.00 48 1010.3
20200712021204 83 0 0.0 0.0 0.00 0.00 0.00 47 1010.5
20200712020304 83 0 0.0 0.0 0.00 0.00 0.00 46 1010.4
20200712015404 83 0 0.0 0.0 0.00 0.00 0.00 46 1010.3
20200712014504 84 0 0.0 0.0 0.00 0.00 0.00 46 1010.4
20200712013604 84 0 0.0 0.0 0.00 0.00 0.00 45 1010.4
20200712012704 85 0 0.0 0.0 0.00 0.00 0.00 42 1010.3
20200712011804 86 0 0.0 0.0 0.00 0.00 0.00 39 1010.3
20200712010904 87 0 0.0 0.0 0.00 0.00 0.00 37 1010.2
20200712010004 87 0 0.0 0.0 0.00 0.00 0.00 37 1010.3
20200712005104 87 0 0.0 0.0 0.00 0.00 0.00 38 1010.3
20200712004204 88 0 0.0 0.0 0.00 0.00 0.00 35 1010.0
20200712003304 88 0 0.0 0.0 0.00 0.00 0.00 34 1010.0
20200712002404 89 0 0.0 0.0 0.00 0.00 0.00 33 1010.2
20200712001504 90 0 0.0 1.0 0.00 0.00 0.00 32 1010.1
20200712000604 91 0 0.0 2.0 0.00 0.00 0.00 32 1010.2
20200711235704 91 302 1.0 2.0 0.00 0.00 0.00 30 1010.3
20200711234804 91 0 0.0 2.0 0.00 0.00 0.00 31 1010.4
20200711233904 92 0 0.0 3.0 0.00 0.00 0.00 34 1010.5
20200711233004 93 272 2.0 3.0 0.00 0.00 0.00 34 1010.8
20200711232104 91 274 1.0 3.0 0.00 0.00 0.00 34 1010.8
20200711231204 91 304 1.0 3.0 0.00 0.00 0.00 31 1010.9
20200711230304 90 278 1.0 3.0 0.00 0.00 0.00 31 1010.8
20200711225404 91 311 1.0 3.0 0.00 0.00 0.00 31 1010.9
20200711224504 91 289 2.0 3.0 0.00 0.00 0.00 31 1011.0
20200711223604 91 325 1.0 3.0 0.00 0.00 0.00 31 1011.1
20200711222704 90 305 2.0 5.0 0.00 0.00 0.00 31 1011.3
20200711221804 91 291 1.0 5.0 0.00 0.00 0.00 29 1011.5
20200711220904 91 280 2.0 5.0 0.00 0.00 0.00 30 1011.7
20200711220004 92 287 3.0 3.0 0.00 0.00 0.00 30 1011.8
20200711215104 94 319 1.0 5.0 0.00 0.00 0.00 29 1011.9
20200711214204 94 323 3.0 5.0 0.00 0.00 0.00 28 1011.7
20200711213304 94 306 4.0 7.0 0.00 0.00 0.00 27 1012.0
20200711212404 94 280 4.0 7.0 0.00 0.00 0.00 27 1011.9
20200711211504 94 265 1.0 11.0 0.00 0.00 0.00 27 1011.9
20200711210604 97 336 2.0 6.0 0.00 0.00 0.00 25 1011.9
20200711205704 96 344 4.0 7.0 0.00 0.00 0.00 27 1012.0
20200711204806 94 304 3.0 9.0 0.00 0.00 0.00 28 1012.1
20200711203904 95 287 3.0 7.0 0.00 0.00 0.00 27 1012.1
20200711203004 96 280 4.0 7.0 0.00 0.00 0.00 26 1012.3
20200711202104 94 286 2.0 9.0 0.00 0.00 0.00 27 1012.4
20200711201204 96 294 3.0 7.0 0.00 0.00 0.00 26 1012.3
20200711200305 96 297 3.0 6.0 0.00 0.00 0.00 27 1012.4
20200711195404 95 316 3.0 9.0 0.00 0.00 0.00 26 1012.5
20200711194504 96 294 5.0 11.0 0.00 0.00 0.00 27 1012.5
20200711193604 94 321 5.0 11.0 0.00 0.00 0.00 27 1012.6
20200711192704 96 315 2.0 7.0 0.00 0.00 0.00 28 1012.6
20200711191804 94 322 2.0 8.0 0.00 0.00 0.00 29 1012.6
20200711190904 96 290 4.0 8.0 0.00 0.00 0.00 27 1012.9
20200711190004 93 321 3.0 7.0 0.00 0.00 0.00 28 1013.0
20200711185104 95 302 3.0 7.0 0.00 0.00 0.00 27 1012.9
20200711184204 93 333 2.0 8.0 0.00 0.00 0.00 29 1012.8
20200711183304 95 300 3.0 8.0 0.00 0.00 0.00 28 1013.1
20200711182404 94 314 1.0 7.0 0.00 0.00 0.00 28 1012.9
20200711181507 94 306 3.0 7.0 0.00 0.00 0.00 28 1012.9
20200711180604 92 290 3.0 7.0 0.00 0.00 0.00 30 1013.0
20200711175704 94 242 3.0 7.0 0.00 0.00 0.00 28 1013.2
20200711174804 94 244 3.0 6.0 0.00 0.00 0.00 30 1013.0
20200711173904 94 173 1.0 9.0 0.00 0.00 0.00 29 1013.2
20200711173030 93 90 6.0 13.0 0.00 0.00 0.00 30 1013.3
20200711172104 92 207 3.0 9.0 0.00 0.00 0.00 31 1013.3
20200711171204 91 184 5.0 9.0 0.00 0.00 0.00 31 1013.3
20200711170304 93 165 3.0 7.0 0.00 0.00 0.00 31 1013.3
20200711165405 93 346 3.0 9.0 0.00 0.00 0.00 32 1013.3
20200711164504 92 7 4.0 8.0 0.00 0.00 0.00 31 1013.6
20200711163604 94 280 2.0 7.0 0.00 0.00 0.00 29 1013.5
20200711162704 92 239 3.0 7.0 0.00 0.00 0.00 32 1013.5
20200711161804 90 164 5.0 7.0 0.00 0.00 0.00 32 1013.5
20200711160904 89 258 5.0 8.0 0.00 0.00 0.00 32 1013.6
20200711160004 90 254 3.0 7.0 0.00 0.00 0.00 32 1013.7
20200711155104 89 294 1.0 5.0 0.00 0.00 0.00 33 1013.8
20200711154204 88 299 3.0 7.0 0.00 0.00 0.00 34 1013.9
20200711153304 86 333 3.0 7.0 0.00 0.00 0.00 34 1013.8
20200711152404 87 273 3.0 5.0 0.00 0.00 0.00 33 1013.5